EN

Hourly Weather Tranovo

Today, 23 April, Friday

Time Temperature Precipitation Wind Pressure Humidity
00:00 +7°C° 0 mm 3 mps 752 mmHg 87%
01:00 +5°C° 0 mm 3 mps 752 mmHg 89%
02:00 +5°C° 0 mm 3 mps 752 mmHg 90%
03:00 +5°C° 0 mm 3 mps 752 mmHg 92%
04:00 +5°C° 0 mm 3 mps 752 mmHg 92%
05:00 +5°C° 0 mm 3 mps 752 mmHg 91%
06:00 +5°C° 0 mm 3 mps 752 mmHg 91%
07:00 +8°C° 0.1 mm 3 mps 752 mmHg 82%
08:00 +10°C° 0.1 mm 4 mps 752 mmHg 73%
09:00 +12°C° 0.1 mm 4 mps 752 mmHg 65%
10:00 +14°C° 0 mm 5 mps 752 mmHg 57%
11:00 +15°C° 0 mm 5 mps 752 mmHg 49%
12:00 +16°C° 0 mm 6 mps 752 mmHg 41%
13:00 +16°C° 0 mm 5 mps 751 mmHg 42%
14:00 +16°C° 0 mm 5 mps 751 mmHg 43%
15:00 +16°C° 0 mm 5 mps 751 mmHg 45%
16:00 +15°C° 0 mm 5 mps 750 mmHg 47%
17:00 +15°C° 0 mm 5 mps 750 mmHg 50%
18:00 +14°C° 0 mm 4 mps 750 mmHg 53%
19:00 +13°C° 0 mm 4 mps 750 mmHg 60%
20:00 +11°C° 0 mm 4 mps 749 mmHg 67%
21:00 +10°C° 0 mm 3 mps 749 mmHg 74%
22:00 +8°C° 0 mm 4 mps 749 mmHg 76%
23:00 +8°C° 0 mm 4 mps 748 mmHg 79%

Tomorrow, 24 April, Saturday

Time Temperature Precipitation Wind Pressure Humidity
00:00 +8°C° 0 mm 4 mps 748 mmHg 81%
01:00 +7°C° 0 mm 4 mps 747 mmHg 83%
02:00 +7°C° 0 mm 4 mps 746 mmHg 86%
03:00 +6°C° 0 mm 4 mps 746 mmHg 88%
04:00 +7°C° 0.1 mm 4 mps 745 mmHg 89%
05:00 +7°C° 0.1 mm 4 mps 745 mmHg 90%
06:00 +7°C° 0.1 mm 4 mps 745 mmHg 91%
07:00 +6°C° 0.8 mm 4 mps 745 mmHg 92%
08:00 +5°C° 0.8 mm 4 mps 745 mmHg 92%
09:00 +4°C° 0.8 mm 4 mps 745 mmHg 92%
10:00 +3°C° 0.8 mm 3 mps 745 mmHg 93%
11:00 +3°C° 0.8 mm 3 mps 745 mmHg 94%
12:00 +3°C° 0.8 mm 3 mps 745 mmHg 95%
13:00 +4°C° 0.2 mm 3 mps 745 mmHg 90%
14:00 +5°C° 0.2 mm 2 mps 745 mmHg 85%
15:00 +6°C° 0.2 mm 2 mps 745 mmHg 81%
16:00 +6°C° 0 mm 2 mps 745 mmHg 79%
17:00 +6°C° 0 mm 2 mps 745 mmHg 78%
18:00 +7°C° 0 mm 1 mps 744 mmHg 76%
19:00 +6°C° 0.1 mm 1 mps 744 mmHg 81%
20:00 +5°C° 0.1 mm 1 mps 744 mmHg 86%
21:00 +5°C° 0.1 mm 1 mps 744 mmHg 91%
22:00 +4°C° 0.2 mm 1 mps 744 mmHg 92%
23:00 +4°C° 0.2 mm 1 mps 744 mmHg 93%

Day after tomorrow, 25 April, Sunday

Time Temperature Precipitation Wind Pressure Humidity
00:00 +4°C° 0.2 mm 1 mps 744 mmHg 95%
01:00 +3°C° 0.1 mm 2 mps 744 mmHg 94%
02:00 +2°C° 0.1 mm 2 mps 744 mmHg 94%
03:00 +2°C° 0.1 mm 2 mps 744 mmHg 94%
04:00 0°C° 0 mm 3 mps 745 mmHg 91%
05:00 0°C° 0 mm 3 mps 745 mmHg 88%
06:00 -1°C° 0 mm 4 mps 745 mmHg 84%
07:00 0°C° 0 mm 4 mps 746 mmHg 79%
08:00 +1°C° 0 mm 5 mps 746 mmHg 73%
09:00 +3°C° 0 mm 5 mps 746 mmHg 68%
10:00 +5°C° 0.1 mm 5 mps 746 mmHg 62%
11:00 +6°C° 0.1 mm 5 mps 746 mmHg 55%
12:00 +6°C° 0.1 mm 5 mps 746 mmHg 49%
13:00 +5°C° 0.3 mm 6 mps 747 mmHg 51%
14:00 +7°C° 0.3 mm 6 mps 747 mmHg 52%
15:00 +7°C° 0.3 mm 6 mps 747 mmHg 53%
16:00 +6°C° 0.1 mm 5 mps 747 mmHg 54%
17:00 +6°C° 0.1 mm 5 mps 747 mmHg 55%
18:00 +6°C° 0.1 mm 4 mps 747 mmHg 55%
19:00 +4°C° 0 mm 4 mps 747 mmHg 61%
20:00 +3°C° 0 mm 3 mps 748 mmHg 67%
21:00 +1°C° 0 mm 3 mps 748 mmHg 73%
22:00 +2°C° 0 mm 2 mps 748 mmHg 76%
23:00 +1°C° 0 mm 2 mps 748 mmHg 79%

26 April, Monday

Time Temperature Precipitation Wind Pressure Humidity
00:00 +1°C° 0 mm 2 mps 748 mmHg 83%
01:00 -1°C° 0 mm 2 mps 749 mmHg 84%
02:00 -1°C° 0 mm 2 mps 749 mmHg 86%
03:00 -1°C° 0 mm 2 mps 749 mmHg 87%
04:00 -1°C° 0 mm 2 mps 749 mmHg 86%
05:00 -1°C° 0 mm 2 mps 749 mmHg 84%
06:00 -1°C° 0 mm 2 mps 749 mmHg 82%
07:00 +2°C° 0 mm 2 mps 749 mmHg 72%
08:00 +3°C° 0 mm 3 mps 749 mmHg 63%
09:00 +5°C° 0 mm 3 mps 749 mmHg 53%
10:00 +7°C° 0 mm 3 mps 749 mmHg 48%
11:00 +8°C° 0 mm 3 mps 749 mmHg 44%
12:00 +9°C° 0 mm 3 mps 749 mmHg 40%
13:00 +9°C° 0 mm 3 mps 749 mmHg 40%
14:00 +9°C° 0 mm 3 mps 748 mmHg 41%
15:00 +9°C° 0 mm 3 mps 748 mmHg 42%
16:00 +8°C° 0.1 mm 3 mps 748 mmHg 46%
17:00 +8°C° 0.1 mm 3 mps 748 mmHg 50%
18:00 +7°C° 0.1 mm 2 mps 747 mmHg 54%
19:00 +6°C° 0 mm 2 mps 747 mmHg 61%
20:00 +4°C° 0 mm 2 mps 747 mmHg 68%
21:00 +3°C° 0 mm 2 mps 747 mmHg 75%
22:00 +4°C° 0 mm 1 mps 747 mmHg 78%
23:00 +3°C° 0 mm 1 mps 747 mmHg 80%

27 April, Tuesday

Time Temperature Precipitation Wind Pressure Humidity
00:00 +3°C° 0 mm 1 mps 747 mmHg 83%
01:00 +3°C° 0.1 mm 1 mps 747 mmHg 85%
02:00 +3°C° 0.1 mm 1 mps 747 mmHg 86%
03:00 +3°C° 0.1 mm 1 mps 746 mmHg 87%
04:00 +2°C° 0 mm 2 mps 747 mmHg 88%
05:00 +2°C° 0 mm 2 mps 747 mmHg 88%
06:00 +2°C° 0 mm 2 mps 747 mmHg 88%
07:00 +3°C° 0.1 mm 2 mps 747 mmHg 80%
08:00 +3°C° 0.1 mm 3 mps 747 mmHg 73%
09:00 +5°C° 0.1 mm 3 mps 747 mmHg 65%
10:00 +6°C° 0.3 mm 4 mps 747 mmHg 59%
11:00 +7°C° 0.3 mm 4 mps 747 mmHg 52%
12:00 +8°C° 0.3 mm 5 mps 747 mmHg 46%
13:00 +8°C° 0 mm 4 mps 747 mmHg 44%
14:00 +8°C° 0 mm 4 mps 747 mmHg 42%
15:00 +10°C° 0 mm 4 mps 747 mmHg 39%
16:00 +8°C° 0.1 mm 4 mps 747 mmHg 46%
17:00 +7°C° 0.1 mm 4 mps 747 mmHg 52%
18:00 +7°C° 0.1 mm 3 mps 748 mmHg 59%
19:00 +5°C° 0.1 mm 3 mps 748 mmHg 65%
20:00 +4°C° 0.1 mm 2 mps 748 mmHg 72%
21:00 +3°C° 0.1 mm 2 mps 748 mmHg 78%
22:00 +3°C° 0 mm 2 mps 748 mmHg 80%
23:00 +2°C° 0 mm 2 mps 749 mmHg 82%

28 April, Wednesday

Time Temperature Precipitation Wind Pressure Humidity
00:00 +2°C° 0 mm 2 mps 749 mmHg 83%
01:00 +1°C° 0 mm 2 mps 749 mmHg 85%
02:00 +1°C° 0 mm 2 mps 749 mmHg 87%
03:00 +1°C° 0 mm 2 mps 750 mmHg 88%
04:00 +2°C° 0 mm 1 mps 750 mmHg 87%
05:00 +2°C° 0 mm 1 mps 750 mmHg 86%
06:00 +2°C° 0 mm 1 mps 751 mmHg 85%
07:00 +4°C° 0 mm 1 mps 751 mmHg 75%
08:00 +5°C° 0 mm 2 mps 752 mmHg 65%
09:00 +7°C° 0 mm 2 mps 752 mmHg 55%
10:00 +8°C° 0 mm 2 mps 752 mmHg 49%
11:00 +10°C° 0 mm 2 mps 752 mmHg 43%
12:00 +11°C° 0 mm 3 mps 752 mmHg 38%
13:00 +11°C° 0 mm 3 mps 752 mmHg 36%
14:00 +11°C° 0 mm 3 mps 752 mmHg 35%
15:00 +12°C° 0 mm 3 mps 753 mmHg 34%
16:00 +11°C° 0 mm 3 mps 753 mmHg 37%
17:00 +11°C° 0 mm 3 mps 753 mmHg 40%
18:00 +12°C° 0 mm 2 mps 753 mmHg 43%
19:00 +9°C° 0 mm 2 mps 753 mmHg 49%
20:00 +7°C° 0 mm 2 mps 753 mmHg 56%
21:00 +5°C° 0 mm 2 mps 753 mmHg 62%
22:00 +5°C° 0 mm 2 mps 753 mmHg 65%
23:00 +5°C° 0 mm 2 mps 754 mmHg 68%
Show more

We Need Your Consent

Meteoprog and our Service Providers may store and access personal data such as cookies, device identifiers or other similar technologies on your device and process such data to personalise content and ads, as well as provide social media features and to analyse the traffic.

  • Store and/or access information on your device

    Cookies, device identifiers or other information can be stored or accessed on your device for the purposes indicated above.

  • Personalised ads and content, ad and content measurement, audience insights, and products development

    Ads and content can be personalised based on a profile. More data can be added to better personalise ads and content. Ad and content performance can be measured. Insights about the audience who saw the ads and content can be derived. Such data can be used to develop or improve user’s experience, systems and software.

By clicking ‘I Agree’ you will allow the use of indicated cookies, device identifiers, web beacons or other similar technologies. Your settings can be changed in the browser on your device.

For certain purposes, legitimate interests may be relied on, rather than consent. You can read more about this in our Privacy and Cookie Policy.